GFSSGP_prec_cloud_276.txt.gz
Cloud_Cover
0 0 0 0 2 61 83 91 10 66 0 0 0 2 40 28 68 95 100 100 91 100 6 5 3 5 16 12 7 91 42 17 0 0 0 0 3 0 0 0 1 4 35 8 5 5 5 5 9
0 0 0 0 4 20 96 88 100 2 0 1 0 1 92 74 83 100 100 100 68 86 2 3 2 0 3 64 36 53 0 0 0 0 0 0 0 0 0 0 0 0 0 0 0 0 5 4 27
0 0 0 0 30 99 99 99 100 23 4 48 0 0 26 100 100 43 95 86 16 5 1 1 2 0 0 5 5 5 0 0 0 0 1 0 0 0 0 0 0 0 0 0 0 0 0 0 0
0 0 0 0 91 48 100 100 100 61 5 2 3 0 0 71 76 5 30 30 12 3 4 5 5 0 2 4 0 0 0 4 4 0 5 0 0 1 5 0 4 0 0 0 0 0 0 0 0
0 0 0 0 61 69 40 100 100 93 99 2 2 0 0 29 23 90 14 2 7 7 5 26 30 3 4 5 2 13 5 5 7 6 2 5 5 5 0 0 0 0 0 0 0 0 0 0 0
0 0 0 30 70 100 100 87 10 79 21 1 0 0 0 0 2 85 100 55 77 81 87 100 41 0 0 0 3 2 17 100 61 35 26 5 3 0 0 0 0 0 0 0 0 0 0 0 0
0 0 0 3 49 97 52 39 100 29 69 6 16 0 0 0 0 0 0 36 57 100 54 7 0 0 0 0 0 0 17 77 68 6 0 0 0 0 0 0 0 0 0 0 0 0 0 0 0
0 0 0 2 88 100 100 100 100 100 99 9 33 6 0 0 0 0 0 0 0 0 0 0 0 0 0 0 0 0 0 0 0 0 0 0 0 0 0 0 0 0 0 0 0 0 0 0 0
0 0 0 10 100 98 17 80 100 90 39 77 53 0 0 0 0 0 0 0 0 0 0 0 0 0 0 0 0 0 0 0 0 0 0 0 0 0 0 0 0 0 0 0 0 0 0 0 0
0 0 0 12 99 31 90 61 100 100 43 25 0 0 0 0 0 0 0 0 0 3 4 1 0 0 0 0 0 0 0 0 0 0 0 0 0 0 0 0 0 0 0 0 0 0 0 0 0
0 0 1 56 100 78 83 24 38 100 100 100 100 100 6 0 0 0 2 1 0 0 3 52 33 0 84 0 0 0 0 0 0 0 0 0 0 0 0 0 0 0 0 0 0 0 0 0 0
0 0 3 67 46 0 3 0 97 100 89 100 100 100 91 5 0 0 0 0 0 0 0 2 0 0 30 0 0 0 0 0 0 0 0 0 0 0 0 0 0 0 0 0 0 0 0 0 0
0 0 0 4 1 0 0 0 0 100 100 100 100 100 100 32 0 0 0 0 0 0 0 0 0 0 0 0 0 0 0 0 0 0 0 0 0 0 0 0 1 0 2 5 0 0 0 0 0
0 0 0 0 0 0 0 0 0 27 100 100 91 100 100 7 0 0 0 0 0 0 0 0 0 0 0 0 0 0 0 0 0 0 1 5 5 8 9 5 5 5 5 5 5 0 0 0 0
0 0 0 0 0 0 0 0 0 23 100 100 6 5 1 30 0 0 0 0 0 0 0 0 0 0 0 0 0 0 0 0 0 4 96 100 75 100 98 93 21 33 5 5 5 1 0 0 0
0 0 0 0 0 0 0 0 0 0 0 91 98 27 4 0 3 0 0 0 0 0 0 0 0 0 0 0 0 0 0 5 5 5 94 97 97 100 100 70 10 93 72 10 6 3 2 11 35
0 0 0 0 0 0 0 0 0 2 0 1 2 34 16 4 23 6 0 71 100 100 96 6 0 0 0 0 0 0 0 0 0 14 31 100 88 100 100 78 94 42 100 100 30 5 6 51 26
0 0 0 3 0 0 0 0 0 72 26 3 40 3 60 49 22 100 100 100 100 100 100 100 30 0 0 1 0 0 0 0 1 5 17 19 89 100 88 28 66 33 95 27 21 11 5 62 44
0 1 5 3 78 0 0 1 0 64 79 0 0 6 99 100 100 100 100 100 100 100 100 100 100 91 100 91 12 10 5 5 62 5 5 93 94 5 60 5 45 93 68 31 0 0 80 68 22
0 0 0 35 96 0 0 0 4 5 22 5 0 50 4 22 100 100 100 100 100 100 100 100 99 62 59 78 65 100 100 99 100 100 76 53 76 5 4 8 100 84 5 3 1 95 95 82 68
0 0 0 0 4 2 0 0 0 0 0 0 0 0 0 4 100 100 100 100 100 100 100 100 62 38 67 78 99 100 100 99 100 60 8 0 0 19 17 41 5 5 5 46 98 100 100 100 100
0 0 0 0 0 0 1 0 0 1 42 0 0 0 0 0 32 100 100 100 100 100 100 45 0 7 55 27 18 8 54 66 80 100 100 3 0 3 5 5 1 0 3 28 27 100 100 100 100
0 0 0 0 0 0 1 2 5 8 42 0 0 0 0 0 0 0 0 2 72 52 0 0 0 0 0 0 4 87 94 81 0 35 3 0 38 2 0 0 5 0 3 27 34 100 100 100 100
0 0 0 0 0 0 5 0 0 96 45 6 98 0 0 0 0 0 0 0 0 0 18 1 0 0 0 0 0 2 0 0 11 72 74 4 4 5 5 5 4 5 18 74 100 100 100 100 100
4 5 5 5 5 5 4 0 0 37 15 0 2 5 0 0 0 0 0 0 3 1 0 19 1 3 0 0 0 0 0 8 4 3 24 88 6 5 5 5 6 98 100 100 100 43 35 40 85
0 0 0 2 20 90 98 33 95 44 0 0 0 0 0 0 0 0 5 5 4 0 0 5 14 0 0 0 0 0 0 0 0 35 36 5 5 5 5 57 96 94 100 100 67 100 100 11 77
5 1 1 0 4 52 88 98 68 7 50 3 0 0 0 0 2 38 20 5 5 4 5 0 0 0 0 0 0 0 0 0 0 3 20 5 5 21 38 100 100 100 100 100 99 4 5 5 8
5 5 1 3 5 1 67 62 53 52 5 5 5 20 20 73 68 6 5 5 5 5 0 0 0 0 0 0 0 0 0 0 0 3 2 5 6 81 94 100 100 100 77 40 20 62 5 5 39
5 5 25 26 32 5 20 100 90 74 77 77 7 33 30 6 5 5 5 5 4 0 0 0 0 0 0 0 0 0 0 2 0 0 0 0 6 37 96 94 100 100 100 49 31 19 32 24 8
5 5 7 8 43 7 99 100 84 53 49 6 50 5 83 93 5 2 5 0 0 0 0 0 0 0 0 0 0 0 5 3 0 0 0 0 5 100 95 100 100 100 100 5 5 13 5 5 5

GFSSGP_prec_cloud_279.txt.gz
Cloud_Cover
0 0 0 0 43 99 43 98 100 100 100 71 47 100 10 33 28 15 23 9 23 57 84 51 68 100 100 49 4 0 7 5 5 5 5 0 0 0 0 0 0 0 0 0 0 0 0 0 0
0 0 0 7 0 64 68 100 100 100 90 99 78 23 0 0 50 94 95 100 100 98 80 65 7 5 3 3 0 0 0 2 7 5 2 0 0 0 0 0 0 0 0 0 0 0 0 0 0
0 0 0 22 3 4 21 88 100 96 100 100 42 0 0 0 2 100 100 100 100 77 76 5 5 8 0 0 0 0 4 0 3 2 0 0 0 0 0 3 0 0 0 0 0 0 0 0 0
0 0 0 5 2 5 44 100 92 51 86 100 5 0 0 0 0 100 100 100 100 100 7 2 0 2 4 4 5 1 2 3 1 5 3 0 1 4 3 3 5 5 5 0 0 0 0 0 0
0 0 0 4 1 5 12 66 100 100 99 100 18 23 0 0 0 2 91 100 69 76 100 80 5 5 6 38 11 0 0 0 0 0 0 0 1 4 2 5 0 0 0 0 0 0 0 0 0
0 0 0 0 1 2 5 98 100 100 100 66 11 0 0 0 0 0 0 0 24 99 98 16 92 87 54 100 6 0 0 0 0 0 0 0 3 2 0 0 0 0 0 0 0 0 0 0 0
0 0 0 0 0 62 51 100 100 100 100 52 96 39 0 0 0 0 0 0 10 93 100 100 100 100 72 5 0 0 0 0 0 0 0 0 0 0 0 0 0 0 0 0 0 0 0 0 0
0 0 2 1 2 5 100 100 94 100 100 100 79 1 0 0 0 0 0 0 0 0 0 0 0 0 0 0 0 0 0 0 0 0 0 0 0 0 0 0 0 0 0 0 0 0 0 0 0
0 0 10 1 1 66 96 39 87 100 100 71 79 3 0 0 0 0 0 0 0 0 0 0 0 0 0 0 2 0 0 0 0 0 0 0 0 0 0 0 0 0 0 0 0 0 0 0 0
0 0 18 0 4 4 100 5 84 95 100 100 45 31 43 100 100 55 1 0 0 0 0 0 0 0 0 0 0 0 0 0 0 0 0 0 0 0 0 0 0 0 0 0 0 0 0 0 0
0 0 0 0 36 30 100 7 99 95 100 100 100 21 95 100 100 83 4 0 0 0 0 0 0 0 0 0 0 0 0 0 0 0 0 0 0 0 0 0 0 0 0 0 0 0 0 0 0
0 0 0 0 1 18 71 100 96 97 100 100 100 100 100 100 100 100 100 34 0 0 0 0 0 0 0 0 0 0 0 0 0 0 0 0 0 0 0 0 0 0 0 3 4 0 0 0 0
0 0 0 0 0 1 2 89 5 41 100 100 100 100 100 100 59 100 58 80 0 0 0 0 22 25 0 0 0 0 0 0 0 0 0 0 0 0 4 1 5 58 5 2 2 1 4 4 2
0 0 0 0 0 0 0 0 0 0 24 98 100 100 100 100 100 94 47 1 0 40 99 100 100 100 99 93 10 2 2 0 0 0 0 0 0 2 5 4 5 53 25 80 14 98 22 6 5
0 0 0 0 0 0 0 0 0 0 62 100 100 100 100 100 67 5 5 6 5 100 100 100 100 100 100 100 100 99 94 100 60 4 5 4 3 40 32 13 5 18 19 51 6 5 5 5 4
0 0 0 0 0 0 0 0 0 0 57 26 85 90 14 6 48 70 21 72 100 100 100 100 100 100 100 100 100 96 94 100 99 5 0 3 5 9 26 18 36 35 5 5 5 5 6 6 0
0 0 0 0 0 0 0 0 0 0 0 53 48 7 47 25 77 77 62 100 100 100 100 100 100 100 100 100 100 100 95 79 24 3 28 89 93 100 100 100 80 32 3 0 3 16 7 4 0
0 0 0 0 0 0 0 0 0 0 4 0 88 100 100 42 44 52 97 100 100 100 100 100 100 100 100 100 100 100 100 100 19 30 67 100 89 95 28 0 1 0 2 26 5 5 3 1 0
0 0 0 0 1 0 0 0 0 0 8 100 98 80 35 74 50 100 100 100 100 100 100 100 100 100 100 100 100 100 100 99 95 7 72 100 7 0 0 0 0 4 25 5 5 5 0 0 55
0 0 0 0 3 19 1 0 0 0 6 94 7 5 2 0 0 100 100 100 100 100 100 100 100 100 100 100 100 100 100 100 85 100 100 97 4 0 0 1 5 4 1 2 0 0 9 3 87
0 0 0 0 1 2 1 0 0 0 0 7 4 0 0 0 1 99 100 100 100 100 100 100 100 100 100 100 100 100 100 100 100 71 100 87 100 18 0 0 0 0 5 5 0 0 60 80 35
0 0 0 0 0 0 0 0 0 0 0 11 0 0 0 0 6 100 100 100 100 100 100 100 100 100 100 100 100 100 100 65 98 100 88 100 67 0 0 1 0 0 4 2 5 4 26 98 100
0 0 0 0 0 0 0 0 0 0 0 5 0 0 0 0 0 45 100 100 100 100 100 100 100 100 100 98 19 3 0 0 0 0 0 0 0 0 5 1 1 5 5 50 6 33 96 58 100
0 0 0 0 0 0 0 0 0 0 0 0 0 0 0 0 1 0 18 78 100 100 100 100 100 98 72 2 0 0 0 0 0 0 0 0 0 5 5 2 5 5 46 1 12 6 84 100 47
0 0 0 0 0 0 0 0 0 0 2 0 0 0 0 0 0 0 0 0 2 4 2 2 0 0 0 0 0 0 0 0 0 0 0 0 1 5 5 5 1 4 100 54 11 50 99 100 96
0 0 0 0 0 0 4 2 0 0 0 0 2 0 1 2 0 0 0 0 0 0 0 0 0 0 0 0 0 0 0 0 0 0 0 0 0 3 2 0 0 0 5 100 100 100 25 5 2
5 21 2 1 0 4 20 28 6 0 0 3 0 31 4 0 0 0 0 0 1 1 0 0 0 0 0 0 0 0 0 0 0 0 0 0 0 0 0 0 0 3 6 100 100 100 100 5 0
5 90 1 0 2 1 2 98 83 13 5 5 5 12 5 4 5 2 4 5 5 1 0 0 0 0 0 0 0 0 0 0 0 0 0 0 0 0 0 0 4 1 95 94 82 45 100 4 4
99 4 32 4 5 62 7 31 90 5 82 36 5 5 5 16 5 0 0 2 0 0 0 0 0 0 0 0 0 0 0 0 0 0 3 0 0 0 0 2 40 99 100 100 100 100 52 0 0
98 5 9 78 86 5 5 5 6 14 5 5 5 97 18 52 15 7 61 5 4 0 0 0 0 0 0 0 0 0 0 0 0 0 0 0 0 0 0 5 100 100 100 100 67 35 5 0 0

GFSSGP_prec_cloud_285.txt.gz
Cloud_Cover
0 0 0 1 2 5 14 44 56 64 5 96 96 49 9 10 3 2 3 5 4 12 91 100 100 100 100 100 100 74 20 5 1 0 5 5 0 0 0 0 0 0 0 0 0 0 0 0 0
0 0 0 4 2 1 2 4 5 5 5 17 71 69 10 81 15 27 1 0 2 51 44 66 63 84 94 86 6 92 55 3 2 1 3 1 4 0 0 0 0 0 0 0 0 0 1 4 0
0 0 5 5 0 0 2 1 5 3 5 28 41 72 32 49 89 53 4 0 4 96 56 20 100 58 93 94 100 66 5 5 5 9 11 39 8 0 0 0 0 0 0 0 0 0 0 0 0
0 0 1 0 0 0 3 0 5 14 26 95 100 94 3 84 72 5 23 2 4 71 51 80 98 20 5 5 1 4 52 62 49 74 44 3 0 0 0 0 0 0 0 0 0 0 0 0 0
0 0 11 2 2 0 0 0 2 13 94 92 60 65 44 83 11 0 0 0 1 27 39 90 85 91 68 100 100 44 100 100 96 19 0 0 0 0 0 0 0 0 0 0 0 0 0 0 0
0 0 7 5 5 4 0 0 0 4 5 21 62 56 82 6 2 5 4 0 0 9 33 21 1 13 24 71 4 21 71 91 4 0 0 0 0 0 0 0 0 0 0 0 0 0 0 0 0
0 0 1 96 10 4 0 0 5 8 64 65 74 100 81 22 20 35 6 0 0 0 12 13 12 0 0 0 0 0 0 0 0 0 0 0 0 0 0 0 0 0 0 0 0 0 0 0 0
5 0 6 59 5 42 0 0 3 18 61 100 100 100 100 99 5 2 1 0 0 0 10 25 21 4 14 0 2 2 1 0 0 0 0 0 0 0 0 1 2 0 0 0 0 0 0 1 0
0 0 39 44 5 31 4 0 0 15 100 100 100 100 100 69 5 0 3 28 5 39 5 14 14 9 5 0 8 5 36 86 18 4 4 1 0 0 5 9 5 5 3 4 5 5 5 79 92
0 0 93 38 5 12 7 0 0 22 100 100 100 100 100 100 62 3 2 7 12 55 62 4 4 0 38 24 8 58 31 71 80 84 87 98 100 100 100 54 6 5 5 5 5 5 5 2 2
0 0 100 76 18 0 0 0 0 1 100 100 100 99 99 12 10 5 4 4 5 19 17 0 0 2 100 100 100 100 100 100 100 100 100 100 100 100 74 5 5 5 3 5 5 2 0 1 3
0 0 76 99 42 0 0 0 0 4 98 100 100 100 87 93 30 13 37 5 5 49 30 0 0 1 100 100 100 100 100 100 100 100 100 100 90 98 47 100 5 5 5 5 4 4 10 10 88
0 0 5 6 9 4 3 0 0 0 0 6 8 100 100 100 99 44 100 35 4 4 73 1 0 26 100 100 100 100 89 100 100 100 100 100 100 100 100 79 20 11 25 4 0 1 5 57 98
0 0 0 17 5 0 0 0 0 0 18 11 28 98 100 100 98 66 100 21 5 8 6 5 76 100 100 100 100 100 99 100 100 100 100 99 75 66 60 100 79 96 24 2 0 0 11 14 36
0 0 0 0 5 0 0 0 0 0 0 5 42 83 100 100 100 100 100 98 92 64 31 83 90 49 100 100 51 100 96 100 99 53 51 13 36 98 94 48 2 2 2 0 0 9 17 0 0
0 0 0 0 5 0 0 0 0 0 0 91 43 98 100 100 100 100 100 100 100 9 33 39 100 100 100 99 98 100 100 100 100 14 70 100 100 100 100 48 100 6 2 15 9 68 0 0 0
0 0 0 0 0 3 0 0 0 0 0 0 2 35 86 100 100 100 100 100 99 45 100 97 100 100 97 100 100 100 100 100 98 77 100 100 100 100 100 100 87 91 0 6 11 0 0 0 0
0 0 0 0 0 0 0 0 0 0 0 0 0 0 98 100 28 57 21 92 89 25 98 100 29 100 100 92 61 93 96 100 100 100 100 100 100 100 100 100 37 3 45 1 3 4 0 0 0
0 0 0 0 0 0 0 0 0 0 0 0 0 27 100 12 31 100 100 100 100 13 100 98 93 98 100 100 100 100 95 100 63 96 100 100 100 100 100 6 0 5 0 0 4 1 0 0 3
0 0 0 0 0 0 0 0 0 0 4 5 5 72 2 33 88 97 100 100 100 96 48 26 10 7 100 100 100 100 100 100 100 100 100 100 100 100 100 3 0 0 3 0 0 0 1 0 0
0 0 0 0 0 0 0 0 0 2 0 1 0 3 3 0 0 5 47 100 100 100 100 96 43 30 97 100 100 100 100 100 100 100 100 97 37 99 29 5 5 4 3 0 0 0 0 11 1
1 0 0 0 0 0 0 0 0 0 0 0 0 0 0 0 3 5 87 100 100 100 50 31 27 25 38 90 100 100 100 100 100 100 100 100 51 4 2 1 0 0 0 0 0 0 0 4 11
0 0 0 0 0 0 0 0 0 0 0 0 0 0 0 0 4 4 52 100 98 38 18 5 5 11 6 5 6 74 98 84 5 31 10 4 0 0 0 0 0 0 0 0 0 0 0 0 30
7 18 1 0 0 0 0 0 0 0 0 0 0 0 0 32 29 21 84 100 89 96 96 2 0 0 5 5 2 0 0 0 0 1 0 0 0 0 0 0 0 0 0 0 0 0 0 9 94
5 2 1 0 0 0 0 3 0 0 3 4 0 0 1 43 87 99 100 100 82 97 16 5 4 5 1 0 0 0 0 0 0 0 0 0 0 0 0 0 0 0 0 0 0 0 2 67 98
0 5 4 0 5 0 0 47 5 0 0 5 0 0 4 48 94 100 100 83 90 10 5 5 5 0 4 0 0 0 0 0 0 0 0 0 0 0 0 0 0 0 0 0 0 0 2 5 52
5 5 2 0 39 42 1 5 5 0 0 5 5 3 7 31 90 93 66 31 99 4 5 5 5 7 4 5 1 4 2 16 41 0 0 0 0 0 0 0 0 0 0 0 0 0 2 5 96
5 24 7 1 5 5 5 3 40 1 0 4 2 0 2 24 81 97 98 98 5 5 5 69 43 94 5 3 5 10 63 100 45 0 0 0 0 0 0 0 0 0 0 0 0 0 23 93 6
93 100 71 5 5 5 5 6 5 17 3 0 2 5 21 94 76 55 79 68 35 5 17 28 8 43 55 5 68 100 100 28 0 0 0 0 0 0 0 0 0 0 0 0 0 2 5 32 88
5 5 5 5 62 42 5 86 4 8 36 8 38 32 90 44 5 33 64 60 11 37 33 12 74 87 29 100 100 100 0 0 0 0 0 0 0 0 0 0 0 0 0 0 2 8 31 6 100

GFSSGP_prec_cloud_291.txt.gz
Cloud_Cover
0 0 5 5 1 5 5 0 0 0 0 3 45 76 94 5 5 45 7 5 41 5 4 0 0 0 0 5 5 5 75 90 100 96 84 26 14 6 0 0 4 0 0 0 0 0 0 0 0
0 0 0 5 0 4 1 0 0 0 0 5 5 23 25 5 7 5 3 1 0 0 0 0 2 1 0 5 2 5 5 34 100 100 87 100 51 2 5 16 5 0 0 0 0 0 0 0 0
0 0 0 0 0 0 5 0 0 0 0 4 22 37 23 62 40 5 13 5 1 1 1 0 0 4 5 2 0 5 5 27 100 100 67 6 4 2 0 3 0 0 0 0 0 0 0 0 0
0 0 0 3 0 0 0 1 0 0 0 0 9 51 100 68 42 5 5 11 5 5 0 0 0 2 1 0 0 60 5 5 26 96 98 91 5 0 0 0 0 0 0 0 0 0 0 0 0
5 0 3 3 3 5 5 5 0 0 0 0 0 0 89 29 92 64 20 11 11 28 1 0 0 0 0 0 0 1 2 25 14 0 0 0 0 0 0 0 0 0 0 0 0 0 0 0 1
5 4 1 5 18 5 2 3 3 0 0 0 0 0 8 5 11 21 50 16 5 3 0 0 0 0 0 0 0 0 0 0 0 0 0 0 0 0 0 0 0 0 0 1 0 4 5 1 2
4 5 2 5 58 22 4 5 1 0 0 0 0 4 4 6 8 76 5 3 0 0 1 0 0 0 0 0 1 0 0 0 0 0 0 0 0 0 2 5 5 8 18 5 5 5 2 5 5
0 0 3 53 24 96 11 5 0 0 0 0 0 5 17 100 67 26 49 2 0 3 13 3 3 57 5 4 1 0 0 0 0 0 0 0 11 75 91 4 2 0 0 0 0 5 5 5 5
0 0 0 50 5 22 50 4 0 0 0 0 0 1 79 99 51 5 5 5 0 5 5 5 5 56 72 30 8 5 0 2 5 92 95 100 9 3 5 4 0 0 1 1 2 3 0 5 5
0 0 3 5 5 5 5 5 2 0 0 0 0 0 82 71 20 5 5 4 4 6 74 68 57 5 3 4 6 10 5 46 48 25 3 36 4 2 5 0 2 10 66 29 21 6 5 0 0
0 0 0 42 19 16 5 5 7 0 0 0 0 0 61 100 46 5 14 5 8 40 5 1 0 5 21 5 5 5 4 0 96 100 95 39 12 14 5 3 66 18 28 56 10 5 5 4 4
0 0 0 3 85 58 50 6 10 11 4 0 0 0 89 98 49 21 51 42 100 100 71 6 5 5 29 5 5 4 2 3 1 62 85 79 6 6 5 94 37 6 6 62 5 6 76 9 8
0 0 0 0 4 10 87 94 100 51 1 0 0 0 26 36 100 99 48 7 16 28 55 45 62 93 35 15 17 5 4 5 5 17 60 8 5 5 5 5 5 20 12 30 62 100 100 90 3
0 0 0 0 2 5 4 8 4 3 2 0 0 0 9 5 30 100 65 24 99 48 51 55 100 83 73 31 64 100 100 22 5 12 16 6 5 5 5 8 83 100 100 100 100 100 90 10 4
0 0 0 0 0 8 5 5 0 0 1 0 0 0 51 72 43 54 100 99 100 100 42 100 79 100 6 18 5 29 100 96 67 100 100 81 7 50 47 5 15 56 100 100 100 100 0 0 0
0 0 0 0 0 0 4 0 4 0 0 0 0 66 99 97 20 0 51 100 98 7 6 32 100 89 49 26 85 98 100 96 84 68 24 59 7 40 44 20 19 98 100 100 63 0 0 0 0
0 0 0 0 0 0 0 0 2 0 0 0 0 2 0 35 100 84 7 42 100 93 100 100 68 34 90 87 77 86 81 70 57 5 4 2 3 34 14 56 100 100 100 8 1 0 0 0 0
0 0 0 0 0 0 0 0 0 0 0 0 0 0 0 0 0 0 0 3 56 25 1 20 90 99 96 12 1 0 0 0 0 1 4 7 9 79 80 97 100 100 0 1 1 0 0 0 0
0 0 0 0 0 0 0 0 0 0 0 0 0 0 0 0 0 0 0 0 0 0 5 6 0 0 0 0 0 0 0 0 0 4 5 44 77 48 99 100 71 5 0 0 0 0 0 0 0
0 0 0 0 0 0 0 0 0 0 0 0 0 0 0 0 0 0 0 0 0 0 0 0 0 3 4 0 4 1 0 18 13 5 11 99 59 31 100 49 0 0 0 0 0 0 0 0 0
0 0 0 1 0 0 0 0 0 0 0 0 0 0 0 0 0 0 0 1 4 0 0 2 0 0 12 4 0 4 10 19 11 26 100 89 87 82 2 0 0 0 0 0 0 0 0 0 0
0 0 4 5 2 0 0 0 0 0 0 0 4 0 0 0 0 0 3 88 98 84 37 1 5 6 38 0 5 5 7 6 62 87 87 100 41 4 0 1 5 5 0 0 0 0 0 0 0
0 4 1 1 0 5 0 0 0 0 0 0 0 0 0 0 0 0 2 98 100 95 43 39 33 14 8 5 3 2 5 60 74 84 13 0 0 0 0 5 30 8 0 0 0 0 0 0 0
0 0 0 0 2 6 2 1 0 0 0 5 5 2 0 0 0 0 74 100 100 75 52 56 45 60 45 19 4 7 71 4 2 1 0 0 0 2 5 5 0 0 0 0 0 0 0 0 0
5 1 0 3 5 15 5 49 15 0 0 0 0 0 0 3 1 46 100 100 94 53 48 35 30 32 17 5 5 4 0 0 0 0 0 0 1 1 0 0 0 0 0 0 5 2 0 0 0
0 0 3 5 19 5 37 98 100 62 1 5 0 5 4 0 5 22 97 76 6 12 44 46 12 3 4 3 5 0 3 1 5 0 0 0 0 0 0 0 0 0 0 0 3 5 0 0 0
0 0 0 0 98 58 36 100 100 100 5 29 5 5 6 5 6 14 98 100 22 51 22 5 6 4 5 5 4 5 5 5 2 0 0 0 0 0 0 0 0 0 0 2 5 0 0 0 3
0 0 0 0 15 100 99 100 100 99 100 100 63 85 100 100 93 41 77 83 33 25 18 5 3 3 5 5 5 8 37 8 0 0 0 0 0 0 0 0 0 0 0 0 0 0 0 0 4
0 0 0 0 0 15 99 100 100 100 100 100 41 5 25 100 100 90 100 90 57 36 5 12 5 2 5 5 8 97 80 3 0 0 0 0 0 0 0 0 0 0 0 0 0 0 0 4 5
0 0 0 0 0 0 4 85 100 94 7 9 98 81 100 100 100 100 94 96 60 5 5 5 5 5 52 74 5 96 34 5 0 0 0 0 0 0 0 0 0 0 0 0 0 0 0 5 4